Location: NCO
(38.4404°N, 77.1340°W)
Time: 12:04:04
(UTC-04:00)

Tiangong 1 - Visible Passes

Search period start: 24 March 2017 00:00
Search period end: 03 April 2017 00:00
Orbit: 334 x 358 km, 42.8° (Epoch: 22 March)

Date Brightness Start Highest point End Pass type
(mag) Time Alt. Az. Time Alt. Az. Time Alt. Az.
24 Mar 0.7 20:36:33 10° WNW 20:39:30 89° SW 20:40:15 45° ESE visible
25 Mar 2.1 21:00:36 10° W 21:03:11 33° SW 21:03:11 33° SW visible
26 Mar 0.9 19:48:24 10° WNW 19:51:22 79° SSW 19:54:16 10° ESE visible
26 Mar 3.9 21:25:35 10° WSW 21:26:09 11° SW 21:26:09 11° SW visible
27 Mar 2.5 20:12:26 10° W 20:15:03 29° SSW 20:17:37 10° SSE visible
28 Mar 3.8 20:37:50 10° SW 20:38:30 11° SW 20:39:10 10° SSW visible
